This demonstration page uses our WeatherBlox Daily Observations layout. Learn more.

Left ArrowRight Arrow

39.01783, -85.05884

Hourly Observations for August 4, 2020

Temp ( °F °C ) Dew Point ( °F °C ) Humidity (%) Winds ( mph kmh ) Pressure ( in mb ) Visibility ( mi km ) Precip ( " mm )
12:52 am 00:52 Mostly Clear 67 19.4 62 16.7 84 84 Calm 29.93 1014 10 16.0934 0 0
1:52 am 01:52 Mostly Clear 64 17.8 62 16.7 93 93 WNW 5 7 29.92 1013 10 16.0934 0 0
2:52 am 02:52 Mostly Cloudy with Mist and Fog 64 17.8 62 16.7 93 93 NW 8 13 29.91 1013 1.5 2.41401 0 0
2:59 am 02:59 Mostly Cloudy with Mist and Fog 64 17.8 63 17.2 96 96 NW 8 13 29.91 1013 1 1.60934 0 0
3:15 am 03:15 Mostly Cloudy with Drizzle 65 18.3 64 17.8 97 97 NW 7 11 29.91 1013 0.25 0.402335 0.001 0.001
3:26 am 03:26 Mostly Cloudy with Mist and Fog 65 18.3 63 17.2 93 93 WNW 8 13 29.91 1013 1 1.60934 0.001 0.001
3:52 am 03:52 Cloudy with Mist and Fog 65 18.3 63 17.2 93 93 NW 8 13 29.89 1012 2 3.21868 0.001 0.001
4:17 am 04:17 Mostly Cloudy with Mist and Fog 65 18.3 63 17.2 93 93 WNW 8 13 29.91 1013 1 1.60934 0 0
4:52 am 04:52 Cloudy with Mist and Fog 64 17.8 63 17.2 96 96 NW 9 15 29.9 1012 1 1.60934 0 0
5:06 am 05:06 Cloudy with Mist and Fog 64 17.8 63 17.2 96 96 WNW 6 9 29.91 1013 0.25 0.402335 0 0
5:52 am 05:52 Cloudy with Mist and Fog 64 17.8 63 17.2 96 96 WNW 7 11 29.91 1013 0.25 0.402335 0 0
6:52 am 06:52 Cloudy with Mist and Fog 64 17.8 63 17.2 96 96 NW 9 15 29.93 1014 0.25 0.402335 0 0
7:27 am 07:27 Cloudy with Mist and Fog 65 18.3 62 16.7 90 90 NW 7 11 29.94 1014 1.25 2.011675 0 0
7:42 am 07:42 Cloudy with Mist and Fog 65 18.3 63 17.2 93 93 VRB 6 9 29.94 1014 5 8.0467 0 0
7:52 am 07:52 Cloudy with Mist and Fog 65 18.3 63 17.2 93 93 NNW 6 9 29.93 1014 5 8.0467 0 0
8:52 am 08:52 Cloudy 67 19.4 63 17.2 87 87 NW 7 11 29.93 1014 7 11.26538 0 0
9:52 am 09:52 Mostly Cloudy 68 20 62 16.7 81 81 NNW 9 15 29.95 1014 10 16.0934 0 0
10:08 am 10:08 Cloudy 69 20.6 63 17.2 81 81 NNW 7 11 29.96 1014 10 16.0934 0 0
10:36 am 10:36 Cloudy 68 20 63 17.2 84 84 WNW 8 13 29.96 1014 9 14.48406 0 0
10:52 am 10:52 Cloudy 70 21.1 63 17.2 79 79 WNW 8 13 29.96 1015 10 16.0934 0 0
11:52 am 11:52 Mostly Cloudy 72 22.2 63 17.2 73 73 NW 8 13 29.97 1015 10 16.0934 0 0
12:04 pm 12:04 Mostly Cloudy 74 23.3 63 17.2 69 69 NW 9 15 29.96 1014 10 16.0934 0 0
12:52 pm 12:52 Mostly Cloudy 75 23.9 61 16.1 62 62 VRB 6 9 29.97 1015 10 16.0934 0 0
1:52 pm 13:52 Mostly Cloudy 73 22.8 63 17.2 71 71 NW 9 15 29.97 1015 10 16.0934 0 0
2:52 pm 14:52 Cloudy 74 23.3 60 15.6 62 62 W 9 15 29.98 1015 10 16.0934 0 0
3:52 pm 15:52 Mostly Cloudy 77 25 62 16.7 60 60 WNW 8 13 29.97 1015 10 16.0934 0 0
4:52 pm 16:52 Partly Cloudy 78 25.6 60 15.6 54 54 WNW 10 17 29.96 1015 10 16.0934 0 0
5:52 pm 17:52 Mostly Cloudy 76 24.4 60 15.6 58 58 WNW 12 19 29.97 1015 10 16.0934 0 0
6:52 pm 18:52 Partly Cloudy 75 23.9 58 14.4 55 55 NW 12 19 29.97 1015 10 16.0934 0 0
7:52 pm 19:52 Mostly Sunny 73 22.8 57 13.9 57 57 NW 9 15 29.98 1015 10 16.0934 0 0
8:52 pm 20:52 Mostly Clear 70 21.1 58 14.4 66 66 NW 6 9 29.99 1016 10 16.0934 0 0
9:52 pm 21:52 Mostly Clear 68 20 57 13.9 68 68 NNW 7 11 30.03 1017 10 16.0934 0 0
10:52 pm 22:52 Mostly Clear 67 19.4 58 14.4 73 73 N 8 13 30.04 1017 10 16.0934 0 0
11:52 pm 23:52 Clear 65 18.3 57 13.9 76 76 NNW 7 11 30.05 1018 10 16.0934 0 0

Powered by AerisWeather